When you browse on this site, cookies collect data to enhance your experience and personalize the content and advertising you see.
Visit our Privacy Policy to learn more. By continuing to use the site, you agree to this use of cookies and data.
  • In Sweden
  • List of Countries
  • For 7 days
  • Water Temperature
  • Satellite Maps
  • Weather Map
  • Weather Widgets
  • user-avatar
    Login

    Hourly Weather Pilaszkow

    Today, 19 February, Tuesday

    Time Temperature Precipitation Wind Pressure Humidity
    00:00 +3°C° 0 mm 3 mps 756 mmHg 74%
    01:00 +3°C° 0 mm 3 mps 755 mmHg 75%
    02:00 +3°C° 0 mm 3 mps 755 mmHg 77%
    03:00 +2°C° 0 mm 3 mps 754 mmHg 78%
    04:00 +2°C° 0 mm 3 mps 754 mmHg 80%
    05:00 +2°C° 0 mm 3 mps 754 mmHg 79%
    06:00 +1°C° 0 mm 4 mps 753 mmHg 78%
    07:00 +1°C° 0 mm 3 mps 753 mmHg 77%
    08:00 +1°C° 0 mm 4 mps 753 mmHg 71%
    09:00 +3°C° 0 mm 5 mps 752 mmHg 66%
    10:00 +5°C° 0 mm 5 mps 752 mmHg 61%
    11:00 +7°C° 0 mm 6 mps 752 mmHg 58%
    12:00 +8°C° 0 mm 6 mps 752 mmHg 55%
    13:00 +10°C° 0 mm 5 mps 751 mmHg 53%
    14:00 +10°C° 0 mm 5 mps 751 mmHg 56%
    15:00 +10°C° 0 mm 5 mps 751 mmHg 59%
    16:00 +9°C° 0 mm 5 mps 751 mmHg 61%
    17:00 +8°C° 0 mm 5 mps 751 mmHg 68%
    18:00 +7°C° 0 mm 5 mps 751 mmHg 74%
    19:00 +6°C° 0 mm 4 mps 752 mmHg 81%
    20:00 +6°C° 0 mm 4 mps 752 mmHg 83%
    21:00 +5°C° 0 mm 4 mps 752 mmHg 84%
    22:00 +5°C° 0 mm 5 mps 752 mmHg 86%
    23:00 +5°C° 0 mm 5 mps 752 mmHg 86%

    Tomorrow, 20 February, Wednesday

    Time Temperature Precipitation Wind Pressure Humidity
    00:00 +3°C° 0 mm 5 mps 752 mmHg 86%
    01:00 +3°C° 0 mm 5 mps 752 mmHg 86%
    02:00 +2°C° 0 mm 5 mps 752 mmHg 87%
    03:00 +2°C° 0 mm 6 mps 753 mmHg 88%
    04:00 +2°C° 0 mm 6 mps 753 mmHg 89%
    05:00 +2°C° 0 mm 6 mps 753 mmHg 87%
    06:00 +2°C° 0 mm 6 mps 753 mmHg 85%
    07:00 +3°C° 0 mm 6 mps 753 mmHg 82%
    08:00 +3°C° 0.1 mm 6 mps 754 mmHg 80%
    09:00 +3°C° 0.1 mm 7 mps 754 mmHg 77%
    10:00 +3°C° 0.1 mm 7 mps 755 mmHg 74%
    11:00 +4°C° 0.1 mm 7 mps 755 mmHg 72%
    12:00 +4°C° 0.1 mm 7 mps 755 mmHg 70%
    13:00 +4°C° 0.1 mm 7 mps 755 mmHg 68%
    14:00 +4°C° 0.1 mm 7 mps 755 mmHg 69%
    15:00 +4°C° 0.1 mm 6 mps 756 mmHg 70%
    16:00 +4°C° 0.1 mm 6 mps 756 mmHg 70%
    17:00 +4°C° 0 mm 6 mps 756 mmHg 72%
    18:00 +3°C° 0 mm 5 mps 757 mmHg 74%
    19:00 +3°C° 0 mm 5 mps 757 mmHg 76%
    20:00 +4°C° 0 mm 4 mps 757 mmHg 78%
    21:00 +4°C° 0 mm 4 mps 757 mmHg 80%
    22:00 +4°C° 0 mm 4 mps 757 mmHg 82%
    23:00 +3°C° 0 mm 4 mps 758 mmHg 85%

    Day after tomorrow, 21 February, Thursday

    Time Temperature Precipitation Wind Pressure Humidity
    00:00 +3°C° 0 mm 4 mps 758 mmHg 88%
    01:00 +3°C° 0 mm 3 mps 758 mmHg 91%
    02:00 +3°C° 0 mm 3 mps 758 mmHg 92%
    03:00 +3°C° 0 mm 3 mps 758 mmHg 93%
    04:00 +3°C° 0 mm 3 mps 758 mmHg 94%
    05:00 +3°C° 0.1 mm 4 mps 758 mmHg 93%
    06:00 +3°C° 0.1 mm 4 mps 758 mmHg 92%
    07:00 +3°C° 0.1 mm 5 mps 757 mmHg 92%
    08:00 +3°C° 0.3 mm 5 mps 757 mmHg 89%
    09:00 +3°C° 0.3 mm 5 mps 757 mmHg 87%
    10:00 +3°C° 0.3 mm 6 mps 757 mmHg 85%
    11:00 +3°C° 0.8 mm 6 mps 756 mmHg 85%
    12:00 +4°C° 0.8 mm 7 mps 756 mmHg 86%
    13:00 +4°C° 0.8 mm 7 mps 756 mmHg 86%
    14:00 +4°C° 0.3 mm 7 mps 755 mmHg 86%
    15:00 +4°C° 0.3 mm 6 mps 755 mmHg 86%
    16:00 +4°C° 0.3 mm 6 mps 755 mmHg 86%
    17:00 +4°C° 0.3 mm 6 mps 755 mmHg 87%
    18:00 +5°C° 0.3 mm 6 mps 755 mmHg 88%
    19:00 +5°C° 0.3 mm 6 mps 755 mmHg 89%
    20:00 +5°C° 0.2 mm 6 mps 755 mmHg 89%
    21:00 +5°C° 0.2 mm 6 mps 755 mmHg 90%
    22:00 +5°C° 0.2 mm 6 mps 755 mmHg 90%
    23:00 +5°C° 0.3 mm 6 mps 756 mmHg 90%

    22 February, Friday

    Time Temperature Precipitation Wind Pressure Humidity
    00:00 +4°C° 0.3 mm 6 mps 756 mmHg 91%
    01:00 +5°C° 0.3 mm 5 mps 756 mmHg 91%
    02:00 +2°C° 0.4 mm 6 mps 757 mmHg 88%
    03:00 -1°C° 0.4 mm 6 mps 758 mmHg 85%
    04:00 -3°C° 0.4 mm 7 mps 759 mmHg 82%
    05:00 -3°C° 0 mm 7 mps 760 mmHg 78%
    06:00 -4°C° 0 mm 6 mps 762 mmHg 73%
    07:00 -5°C° 0 mm 6 mps 763 mmHg 68%
    08:00 -4°C° 0 mm 6 mps 764 mmHg 64%
    09:00 -4°C° 0 mm 6 mps 766 mmHg 61%
    10:00 -4°C° 0 mm 6 mps 767 mmHg 57%
    11:00 -4°C° 0 mm 6 mps 767 mmHg 53%
    12:00 -2°C° 0 mm 5 mps 768 mmHg 50%
    13:00 -2°C° 0 mm 5 mps 769 mmHg 47%
    14:00 -2°C° 0 mm 5 mps 769 mmHg 47%
    15:00 -3°C° 0 mm 4 mps 769 mmHg 47%
    16:00 -3°C° 0 mm 4 mps 770 mmHg 48%
    17:00 -2°C° 0 mm 3 mps 770 mmHg 50%
    18:00 -4°C° 0 mm 3 mps 771 mmHg 53%
    19:00 -3°C° 0 mm 2 mps 771 mmHg 55%
    20:00 -3°C° 0 mm 2 mps 771 mmHg 55%
    21:00 -1°C° 0 mm 1 mps 772 mmHg 54%
    22:00 -1°C° 0 mm 1 mps 772 mmHg 53%
    23:00 -1°C° 0 mm 1 mps 772 mmHg 53%

    23 February, Saturday

    Time Temperature Precipitation Wind Pressure Humidity
    00:00 -2°C° 0 mm 1 mps 772 mmHg 52%
    01:00 -2°C° 0 mm 1 mps 772 mmHg 52%
    02:00 -2°C° 0 mm 1 mps 772 mmHg 52%
    03:00 -2°C° 0 mm 1 mps 772 mmHg 52%
    04:00 -2°C° 0 mm 1 mps 772 mmHg 52%
    05:00 -2°C° 0 mm 1 mps 772 mmHg 52%
    06:00 -2°C° 0 mm 1 mps 771 mmHg 52%
    07:00 -2°C° 0 mm 1 mps 771 mmHg 53%
    08:00 -1°C° 0 mm 1 mps 771 mmHg 48%
    09:00 0°C° 0 mm 1 mps 771 mmHg 44%
    10:00 0°C° 0 mm 1 mps 771 mmHg 40%
    11:00 -1°C° 0 mm 2 mps 771 mmHg 37%
    12:00 +1°C° 0 mm 2 mps 771 mmHg 35%
    13:00 +2°C° 0 mm 2 mps 770 mmHg 33%
    14:00 +2°C° 0 mm 2 mps 770 mmHg 36%
    15:00 +1°C° 0 mm 2 mps 769 mmHg 39%
    16:00 +1°C° 0 mm 2 mps 769 mmHg 42%
    17:00 +1°C° 0 mm 2 mps 769 mmHg 47%
    18:00 +1°C° 0 mm 1 mps 769 mmHg 52%
    19:00 +1°C° 0 mm 1 mps 769 mmHg 57%
    20:00 +1°C° 0 mm 1 mps 768 mmHg 56%
    21:00 +1°C° 0 mm 1 mps 768 mmHg 55%
    22:00 -1°C° 0 mm 2 mps 768 mmHg 55%
    23:00 -1°C° 0 mm 2 mps 768 mmHg 56%

    24 February, Sunday

    Time Temperature Precipitation Wind Pressure Humidity
    00:00 -1°C° 0 mm 2 mps 767 mmHg 57%
    01:00 -1°C° 0 mm 3 mps 767 mmHg 58%
    02:00 -1°C° 0 mm 3 mps 767 mmHg 65%
    03:00 -1°C° 0 mm 3 mps 767 mmHg 71%
    04:00 -1°C° 0 mm 3 mps 767 mmHg 78%
    05:00 -1°C° 0 mm 3 mps 767 mmHg 83%
    06:00 -1°C° 0 mm 2 mps 767 mmHg 88%
    07:00 +1°C° 0 mm 2 mps 767 mmHg 93%
    08:00 +1°C° 0 mm 2 mps 767 mmHg 91%
    09:00 +1°C° 0 mm 3 mps 767 mmHg 90%
    10:00 +2°C° 0 mm 3 mps 768 mmHg 89%
    11:00 +2°C° 0 mm 3 mps 768 mmHg 87%
    12:00 +4°C° 0 mm 2 mps 768 mmHg 85%
    13:00 +4°C° 0 mm 2 mps 768 mmHg 83%
    14:00 +4°C° 0 mm 2 mps 768 mmHg 82%
    15:00 +4°C° 0 mm 2 mps 768 mmHg 82%
    16:00 +3°C° 0 mm 2 mps 769 mmHg 81%
    17:00 +3°C° 0 mm 2 mps 769 mmHg 82%
    18:00 +3°C° 0 mm 2 mps 769 mmHg 84%
    19:00 +2°C° 0 mm 2 mps 769 mmHg 85%
    20:00 +2°C° 0 mm 2 mps 770 mmHg 86%
    21:00 +1°C° 0 mm 2 mps 770 mmHg 86%
    22:00 +1°C° 0 mm 2 mps 770 mmHg 87%
    23:00 +2°C° 0 mm 1 mps 770 mmHg 86%
    Show more